Theta_e
325 326 329 331 329 327 326 326 323 327 327 330 329 329 330 334 331 327 334 335 334 328 316 323 333 328 331 331 332 329 323 317 314 313 313 313 314 312 311 311 318 324 313 311 311 313 312 312 311
330 332 333 330 329 332 327 324 326 325 330 329 330 332 334 336 336 335 335 334 331 325 316 320 331 327 330 328 325 321 316 315 313 315 328 319 315 312 311 310 311 318 318 317 315 313 311 310 310
329 329 328 325 327 331 326 325 324 327 328 328 331 332 335 336 335 334 333 333 331 324 317 313 326 327 321 317 316 316 319 315 314 324 318 314 313 312 312 311 314 325 327 323 317 314 311 312 311
326 327 326 327 328 326 325 324 324 324 328 331 333 332 336 336 334 334 335 335 330 321 317 313 314 317 315 314 320 331 323 316 315 316 316 315 315 314 314 313 312 316 326 318 313 312 312 313 313
326 326 323 326 326 327 325 324 325 324 326 330 330 333 336 336 336 334 334 329 327 319 318 316 313 313 313 316 326 327 320 317 318 320 321 318 317 316 316 316 316 315 315 315 315 315 316 318 318
324 325 324 328 327 326 324 325 326 325 328 332 333 333 336 336 336 334 330 325 323 320 320 320 318 316 315 315 318 318 318 318 319 320 321 322 320 320 320 319 319 319 319 318 319 319 319 319 321
320 322 326 326 327 327 325 326 325 327 328 329 331 331 336 336 336 333 332 328 323 322 322 322 322 321 320 319 319 319 319 319 320 321 322 323 321 321 321 321 321 321 322 321 320 319 320 321 323
321 319 325 324 326 328 324 325 327 328 324 329 327 331 334 336 335 333 333 333 328 324 324 324 323 323 323 323 323 322 322 322 321 322 322 322 322 323 323 323 323 323 323 322 321 321 322 323 322
319 318 322 324 325 326 324 324 325 326 330 328 328 327 325 335 335 334 334 334 334 330 326 325 324 324 323 323 323 322 323 323 323 323 323 323 324 322 321 322 321 321 321 321 321 321 321 321 322
315 316 319 322 324 324 324 326 327 327 328 329 328 329 331 335 335 333 333 334 334 329 326 326 324 324 323 321 320 320 320 320 321 321 320 322 321 321 322 323 323 323 323 322 322 322 322 323 323
314 314 318 324 325 325 326 327 327 326 326 328 328 331 333 335 335 333 333 330 329 327 325 325 324 323 321 319 318 321 319 320 321 323 325 325 325 324 324 324 324 324 325 325 324 324 324 323 324
317 319 322 323 324 327 326 327 326 326 325 326 324 321 330 334 334 333 332 330 328 326 325 323 321 319 318 317 319 324 324 324 322 322 326 326 325 325 325 324 324 325 326 325 325 326 325 325 326
316 320 321 322 324 326 326 325 325 326 327 326 326 326 326 328 330 332 330 330 328 326 325 322 320 318 318 318 319 326 327 326 328 325 325 325 324 327 326 325 323 323 325 324 324 325 326 324 325
316 319 319 320 321 322 322 322 326 326 327 327 326 327 328 327 327 332 332 331 329 326 325 323 321 320 320 322 323 325 328 327 327 327 326 325 326 326 326 324 322 319 326 324 323 323 324 325 325
319 319 316 317 318 318 321 323 322 324 327 329 329 329 329 329 331 328 328 328 327 327 326 324 324 323 324 327 330 329 328 328 328 325 327 326 325 321 321 318 316 319 322 321 322 321 323 322 323
314 314 315 315 318 317 319 326 318 322 328 331 331 331 331 329 326 328 329 327 328 331 331 330 328 326 329 332 331 331 329 330 330 329 326 326 325 324 322 316 315 316 318 318 318 319 322 321 321
311 312 312 317 317 316 314 315 313 320 326 330 331 332 332 331 329 329 330 328 331 334 334 333 332 330 331 333 333 333 331 330 330 329 328 326 323 318 315 313 312 313 314 314 315 317 321 322 321
313 312 314 315 316 315 315 312 314 317 320 325 329 331 332 331 329 329 331 331 333 334 335 334 333 332 332 332 333 333 332 329 324 324 322 318 315 312 311 311 314 315 316 316 317 318 318 318 318
311 312 313 312 312 316 314 313 312 313 315 317 322 325 329 331 331 331 332 333 334 334 334 335 333 332 332 332 332 331 329 322 321 318 316 313 312 311 313 315 315 315 315 314 314 313 314 316 317
311 311 312 313 311 314 313 314 311 312 312 315 317 318 319 320 321 326 331 332 333 332 333 334 333 332 332 331 326 322 319 318 317 316 314 312 313 315 315 314 313 311 309 308 307 306 307 311 314
310 311 311 313 311 309 310 310 309 309 310 313 315 316 316 316 320 322 323 328 330 330 332 333 332 331 329 326 322 319 318 317 317 315 312 313 314 315 313 310 308 306 305 303 302 302 301 300 302
312 310 311 311 310 312 308 313 309 307 307 307 311 313 316 316 316 323 325 327 329 329 330 329 328 327 325 324 320 318 317 317 316 313 313 314 315 312 309 306 304 303 303 303 303 302 301 300 299
311 310 309 308 308 308 309 310 309 305 307 306 308 311 311 315 315 320 326 327 327 327 327 326 325 324 323 320 318 317 318 317 314 312 313 315 313 309 305 304 304 304 303 303 303 303 302 301 300
309 308 308 307 307 308 308 309 310 305 307 307 308 309 309 311 314 319 324 324 324 324 324 324 322 321 319 317 316 316 317 315 313 312 314 313 309 304 304 304 303 303 303 303 303 302 302 302 301
309 312 312 314 306 312 305 305 310 305 303 305 306 309 310 310 312 316 321 322 323 323 323 320 318 317 316 315 314 314 314 313 313 313 313 309 304 304 304 303 303 302 302 302 302 301 301 301 300
308 312 311 316 309 310 306 308 308 305 306 306 308 309 311 311 312 313 317 319 320 320 319 318 315 315 314 313 313 313 313 313 313 313 309 304 304 304 303 303 302 301 301 301 300 300 300 299 299
309 310 306 307 298 307 305 304 303 304 306 307 307 309 310 310 310 311 312 314 315 315 315 314 313 312 312 312 313 313 313 312 313 309 304 304 304 304 303 302 301 300 300 299 299 299 299 299 299
309 306 310 305 304 306 304 303 306 305 306 306 306 308 309 310 309 309 309 311 312 313 312 312 311 310 311 311 312 312 312 312 309 304 304 304 304 303 302 300 299 299 299 299 299 298 298 298 298
308 307 306 307 305 308 305 304 301 302 304 304 305 309 310 309 309 309 309 310 311 311 311 310 310 309 310 310 311 311 312 308 304 304 304 304 304 303 301 299 299 298 298 298 298 298 297 297 297
309 307 305 313 306 303 304 304 304 304 302 304 306 308 308 308 308 309 309 309 309 309 309 308 308 309 309 309 310 310 307 304 304 304 303 303 303 301 299 298 298 298 297 297 297 296 296 296 296
Wind_Speed
3 10 11 5 2 4 2 3 3 4 3 2 7 4 8 5 3 3 22 13 14 13 14 18 15 14 13 13 11 8 5 5 6 6 6 8 8 8 7 6 7 7 8 9 10 10 10 10 10
7 9 6 1 4 2 4 1 6 3 14 19 16 11 6 2 6 17 22 17 15 12 14 18 16 14 13 12 9 7 6 6 7 9 10 8 8 9 9 8 8 6 7 10 12 11 10 9 8
9 7 1 3 3 4 4 4 6 11 14 3 7 10 4 4 9 27 19 19 15 13 13 16 15 12 10 8 8 8 7 7 8 10 7 8 9 10 10 10 9 9 10 8 9 9 9 9 8
9 4 2 3 4 4 5 7 9 11 5 4 17 7 6 2 20 17 21 16 15 14 13 13 13 11 10 9 9 9 7 6 7 6 7 8 9 9 9 9 8 8 6 6 7 8 8 8 7
10 2 2 1 3 1 0 13 16 6 6 9 5 5 4 16 10 18 19 17 17 16 14 13 12 11 11 11 9 9 6 6 5 6 7 7 7 7 7 7 7 6 5 5 6 6 6 6 7
5 2 3 3 3 1 3 16 13 6 10 10 10 8 4 12 13 18 17 17 16 15 16 14 14 12 12 11 9 8 6 6 5 4 5 5 5 5 5 5 4 4 4 5 5 6 6 6 7
6 4 5 4 4 3 6 11 12 12 11 5 20 5 7 16 18 19 16 17 16 15 15 15 15 14 13 11 10 8 7 6 5 4 3 3 2 2 2 3 3 4 5 5 5 6 7 7 7
5 4 5 4 7 5 9 9 16 22 4 20 16 7 8 24 21 19 15 14 14 14 15 15 15 14 12 11 9 7 6 5 4 4 2 2 1 1 1 2 5 5 5 5 6 6 5 5 5
5 4 3 6 8 5 15 6 12 8 21 7 8 13 12 27 24 20 18 17 15 14 15 14 13 12 11 9 8 7 6 5 4 3 2 2 2 3 1 3 6 6 6 5 5 6 3 4 5
4 4 9 3 5 7 17 16 15 9 11 4 8 9 30 29 28 26 24 22 18 17 18 15 14 12 11 10 8 6 5 4 4 3 1 2 3 2 7 5 4 5 6 5 5 5 4 5 6
5 6 5 3 6 12 17 14 9 21 3 14 21 31 35 32 30 29 27 22 19 16 18 18 16 14 13 9 5 5 6 4 3 2 2 3 2 3 3 4 5 5 6 6 6 6 6 6 7
3 2 5 8 8 12 15 16 10 12 7 21 21 28 34 34 33 32 27 23 22 20 18 17 16 14 13 9 7 8 6 4 5 2 2 2 3 5 6 8 9 9 10 10 9 10 9 10 10
2 3 4 6 12 17 15 7 9 8 9 21 28 33 32 32 31 29 25 21 21 21 19 18 16 15 13 9 9 7 5 2 2 1 5 5 7 10 11 11 13 11 10 11 11 12 10 13 14
11 7 6 3 7 6 9 4 9 9 14 24 31 33 32 32 32 31 28 25 25 20 20 18 17 14 13 9 8 8 8 9 8 7 8 8 9 10 12 15 16 14 13 13 13 13 12 11 12
12 5 5 5 2 4 9 2 4 10 16 29 33 33 32 32 33 31 29 27 25 21 18 19 17 15 13 11 11 11 11 12 11 10 11 11 13 15 16 18 17 15 14 15 12 12 12 11 13
5 5 5 2 0 2 3 8 4 11 21 30 34 34 32 32 32 30 28 26 24 22 21 19 18 17 15 16 17 15 14 13 14 14 14 15 17 18 20 19 17 16 16 17 15 9 7 8 9
5 5 4 1 1 2 2 5 5 12 20 29 33 34 32 31 32 31 29 27 25 23 24 23 21 20 19 20 20 19 17 16 16 17 18 18 18 18 18 17 14 13 12 8 5 4 5 9 9
7 6 3 6 5 3 2 5 2 9 17 25 28 29 31 31 32 30 30 29 29 28 28 28 26 24 22 21 21 21 20 18 17 17 15 15 15 15 13 10 6 4 3 4 5 6 7 8 8
8 6 6 1 1 3 5 5 6 7 9 16 22 25 30 33 32 31 32 32 32 32 34 34 31 28 26 23 24 24 22 19 17 14 13 12 11 9 5 3 2 3 4 5 6 7 7 7 7
6 7 3 2 4 4 2 8 6 7 9 20 25 27 26 26 27 32 36 35 34 33 36 37 34 30 27 25 23 23 21 19 16 13 11 9 6 2 1 2 3 3 4 5 6 6 6 7 8
3 8 5 6 4 3 1 7 4 7 16 20 24 26 25 27 27 26 31 34 33 34 36 35 33 30 27 24 24 24 22 19 15 12 8 6 4 3 3 3 3 4 5 6 6 7 7 6 6
5 4 6 10 5 4 2 5 5 5 9 7 28 30 31 28 25 24 26 31 34 35 33 31 28 26 24 23 24 23 19 16 13 11 8 7 6 5 3 2 2 4 6 7 7 7 7 7 7
3 6 6 5 6 4 1 1 7 1 6 9 20 29 29 27 27 26 26 29 33 32 31 28 26 24 23 23 22 21 19 16 14 11 10 9 7 5 3 1 3 4 6 6 6 7 7 7 8
11 7 8 5 3 1 6 6 5 5 9 5 2 11 14 23 24 26 29 29 30 30 28 26 23 21 20 21 22 22 19 17 14 12 11 9 7 4 2 2 3 4 5 6 6 6 6 7 8
2 6 3 2 2 4 2 2 7 4 6 4 7 10 10 15 22 25 29 30 29 28 27 25 21 19 19 21 21 20 18 15 12 11 11 8 6 3 2 3 3 3 4 4 6 7 8 8 9
7 6 6 7 4 3 1 7 6 4 7 10 9 13 14 14 16 21 25 27 28 27 26 24 20 18 19 20 20 20 17 14 13 12 11 8 5 4 4 3 3 3 4 6 7 8 9 11 12
5 4 4 7 2 3 4 7 9 3 5 3 10 16 16 16 15 16 19 22 25 25 24 20 19 20 20 20 20 20 17 16 14 13 11 8 7 6 5 3 2 4 5 7 8 10 11 13 13
3 8 4 3 4 3 4 5 5 5 7 6 8 17 17 15 14 15 17 20 22 22 21 21 21 19 19 20 20 18 17 16 15 13 11 10 9 7 5 3 3 4 6 8 11 12 13 14 15
3 4 4 4 4 5 1 6 6 6 8 11 15 21 19 17 16 16 17 19 20 21 23 22 21 20 20 20 19 18 17 16 15 13 12 11 10 8 6 5 4 6 8 10 12 13 15 16 16
1 5 5 6 5 1 3 6 0 5 8 14 17 19 18 18 17 17 17 19 22 22 23 22 21 21 20 19 18 18 18 17 15 14 13 12 10 9 8 5 5 7 10 12 13 14 15 15 15
Wind_Direction
158 156 165 180 67 68 195 211 139 133 96 93 140 155 139 66 135 177 144 156 164 162 151 149 148 153 147 149 150 140 134 120 106 98 94 97 90 84 77 81 89 76 66 59 73 70 62 57 50
156 162 173 200 102 101 257 227 146 181 134 107 92 95 57 83 119 138 150 152 157 157 153 159 158 166 166 164 163 149 132 109 100 100 99 82 78 74 76 82 95 92 48 60 52 65 55 44 44
182 184 215 120 120 179 188 186 151 131 140 121 105 72 78 126 146 147 153 152 154 156 154 162 165 167 167 152 152 144 120 100 102 108 98 81 76 76 74 75 73 70 66 46 48 39 38 39 38
178 185 62 104 220 239 185 166 148 137 117 103 116 72 85 122 141 153 150 158 157 155 151 154 162 158 156 151 146 140 120 104 107 108 100 89 76 74 71 70 71 78 81 38 32 32 34 34 34
182 174 78 249 256 291 231 151 156 124 114 123 117 122 84 155 153 156 154 156 162 155 148 143 145 149 149 151 144 146 130 118 116 93 96 102 84 73 66 64 62 56 42 30 25 21 17 16 14
156 140 86 224 244 47 71 155 137 111 133 129 106 99 125 181 175 162 152 153 162 156 148 146 144 148 150 154 156 151 143 137 137 117 100 106 88 64 57 51 44 35 19 6 2 359 358 0 2
151 113 204 183 156 115 164 165 145 136 139 154 138 89 141 168 175 158 151 151 161 160 155 156 156 156 157 157 160 159 156 157 150 135 129 120 82 44 39 33 26 3 351 343 343 347 350 355 2
204 117 156 193 177 197 165 149 153 149 154 144 147 157 169 171 168 158 155 157 162 167 169 169 167 166 162 160 160 161 162 163 165 170 171 190 252 300 358 15 359 352 347 347 349 358 9 9 15
179 79 200 198 167 165 160 129 155 147 143 164 188 171 181 160 164 166 170 170 173 178 179 178 175 170 167 167 169 176 182 185 186 194 208 233 253 292 40 35 42 33 18 11 23 38 33 18 13
151 147 211 196 164 165 166 146 144 140 149 136 160 160 161 164 169 174 181 185 182 181 179 181 180 178 174 174 179 188 197 206 205 197 214 249 258 13 70 56 45 31 20 17 6 3 358 350 348
175 184 179 217 181 165 146 139 152 141 211 178 162 155 165 172 178 183 188 190 184 181 181 182 184 183 179 176 166 126 107 114 118 135 48 14 99 26 2 347 332 328 322 321 320 319 319 325 331
163 200 157 178 164 148 148 144 131 167 186 183 173 168 170 179 185 190 194 191 187 187 184 179 179 181 179 179 151 129 119 106 37 7 55 344 311 311 313 311 304 304 308 307 315 305 306 314 316
32 168 105 127 135 136 145 145 152 181 173 176 166 169 177 183 189 194 198 195 193 194 189 189 185 182 184 176 162 166 171 178 303 194 206 231 264 289 290 292 291 298 301 307 300 308 306 299 300
206 133 109 87 104 114 129 128 151 179 168 171 172 179 184 189 192 195 201 202 202 199 198 192 193 189 190 184 176 182 202 210 226 242 244 253 271 276 283 286 286 293 286 288 285 290 288 291 295
139 110 53 30 27 101 120 64 194 163 174 175 182 186 191 197 199 201 200 203 204 202 198 199 195 195 195 193 205 215 220 228 239 254 259 262 276 288 298 303 294 284 281 281 288 289 288 288 293
85 51 138 301 141 39 123 221 224 175 173 183 189 192 198 203 208 208 209 208 207 204 203 202 201 202 201 205 217 227 234 242 249 257 261 267 277 284 290 291 288 288 288 285 278 278 283 294 280
25 168 143 108 208 103 90 234 206 188 190 193 195 198 203 209 213 215 216 216 214 215 214 210 209 210 211 215 220 230 238 243 250 256 262 272 280 285 288 292 298 300 304 306 317 301 273 271 283
156 125 125 149 215 123 151 265 207 185 199 208 205 206 210 215 217 219 219 219 221 223 222 220 216 214 217 222 227 232 238 246 249 254 264 276 285 290 296 301 317 319 319 337 315 297 289 282 278
125 114 124 64 54 155 193 255 237 199 207 212 208 210 216 223 224 224 224 223 224 224 222 219 217 217 220 226 230 234 239 241 245 250 263 275 283 291 304 316 301 319 322 310 302 298 287 281 276
113 123 109 63 24 81 171 256 267 242 236 221 215 217 219 223 227 226 227 227 226 226 217 215 216 220 222 229 236 233 234 238 242 250 266 276 280 285 274 281 299 315 316 326 333 327 310 283 273
83 146 166 146 124 59 77 298 234 255 241 242 237 234 230 229 229 225 222 222 219 212 207 210 212 216 222 228 231 230 230 234 239 250 257 259 242 233 249 277 313 323 340 345 341 339 334 316 292
135 159 122 131 111 185 30 258 266 238 250 235 245 241 237 235 231 226 217 209 203 200 201 206 214 221 228 238 237 236 240 241 240 244 244 234 222 224 240 275 319 344 345 346 348 348 344 340 331
118 99 108 103 90 96 298 94 266 9 261 241 241 243 239 230 228 219 211 203 198 199 205 211 219 228 235 236 233 232 230 231 237 239 228 217 215 220 232 302 341 340 345 347 353 355 353 348 339
143 90 53 57 80 331 208 162 260 196 213 257 225 233 231 218 216 213 206 201 201 204 210 219 226 231 236 233 229 227 229 233 237 232 217 210 207 210 232 311 329 339 349 355 355 351 346 342 335
80 119 35 22 354 220 6 195 253 243 247 248 272 221 193 196 207 211 208 207 210 215 218 222 224 229 232 230 226 225 224 226 229 220 210 202 199 207 250 291 321 341 350 349 345 346 342 334 327
173 163 154 177 201 195 110 229 241 208 275 259 262 194 178 181 191 204 211 214 216 218 220 223 225 229 231 226 221 218 218 219 213 207 202 195 201 218 245 273 300 338 346 344 340 337 336 335 331
186 176 127 103 37 68 220 292 292 248 252 193 162 175 183 189 197 203 208 213 214 216 218 221 224 227 225 221 216 214 215 210 205 200 194 200 211 225 242 259 315 334 333 331 334 336 335 333 329
151 147 80 15 129 257 264 275 244 239 235 213 195 199 193 193 198 203 206 207 209 213 217 221 224 224 222 216 214 212 210 201 194 192 200 210 219 230 233 249 285 307 321 331 335 332 329 328 328
121 146 70 119 147 175 219 258 221 228 212 203 210 207 204 207 209 210 205 206 211 218 222 225 225 218 211 210 210 207 202 195 192 199 212 219 225 228 229 240 279 319 331 328 327 329 331 327 323
355 167 160 191 202 205 147 272 194 269 263 219 216 218 221 221 216 209 210 215 220 223 225 224 216 209 206 207 205 199 194 193 200 211 222 229 229 229 233 256 302 319 323 327 329 328 321 319 324